Mount Holly, NJ

9:27 AM EDT on March 27, 2017 (GMT -0400)
South Jersey Regional

Weather History for KVAY - August, 2013

Change the Weather History Date:

Monday, August 19, 2013

  Actual Average (KPNE) Record (KPNE)
Temperature  
Mean Temperature 68 °F -  
Max Temperature 77 °F 83 °F 93 °F (2002)
Min Temperature 61 °F 65 °F 57 °F (1997)
Cooling Degree Days 3    
Growing Degree Days 18 (Base 50)    
Moisture  
Dew Point 60 °F    
Average Humidity 77    
Maximum Humidity 93    
Minimum Humidity 52    
Precipitation  
Precipitation 0.00 in - - ()
Sea Level Pressure  
Sea Level Pressure 30.11 in    
Wind  
Wind Speed 2 mph (WSW)    
Max Wind Speed 7 mph    
Max Gust Speed -    
Visibility 10 miles    
Events      
Averages and records for this station are not official NWS values.
T = Trace of Precipitation, MM = Missing Value Source: NWS Daily Summary

Daily Weather History Graph

Daily Weather History Graph

Search for Another Location

Airport or City:

Trip Planner

Search our weather history database for the weather conditions in past years. The results will help you decide how hot, cold, wet, or windy it might be!

Date:

Astronomy

Aug. 19, 2013 Rise Set
Actual Time 6:15 AM EDT 7:50 PM EDT
Civil Twilight 5:46 AM EDT 8:18 PM EDT
Nautical Twilight 5:11 AM EDT 8:53 PM EDT
Astronomical Twilight 4:35 AM EDT 9:29 PM EDT
Moon 6:39 PM EDT (8/19) 4:31 AM EDT (8/19)
Length of Visible Light 14h 32m
Length of Day
13h 34m
Waxing Gibbous, 97% of the Moon is Illuminated
Aug 19
Waxing Gibbous
Aug 20
Full
Aug 28
Last Quarter
Sep 5
New
Sep 12
First Quarter

Hourly Weather History & Observations

Time (EDT) Temp. Dew Point Humidity Pressure Visibility Wind Dir Wind Speed Gust Speed Precip Events Conditions
12:54 AM 62.1 °F 60.1 °F 93% 30.16 in 10.0 mi Calm Calm - N/A   Partly Cloudy
1:54 AM 62.1 °F 60.1 °F 93% 30.14 in 10.0 mi Calm Calm - N/A   Scattered Clouds
2:54 AM 63.0 °F 59.0 °F 87% 30.14 in 10.0 mi Calm Calm - N/A   Partly Cloudy
3:54 AM 61.0 °F 59.0 °F 93% 30.13 in 10.0 mi Calm Calm - N/A   Clear
4:54 AM 61.0 °F 59.0 °F 93% 30.13 in 10.0 mi Calm Calm - N/A   Clear
5:54 AM 62.1 °F 60.1 °F 93% 30.14 in 8.0 mi Calm Calm - N/A   Clear
6:54 AM 63.0 °F 61.0 °F 93% 30.14 in 6.0 mi Calm Calm - N/A   Clear
7:54 AM 64.9 °F 62.1 °F 90% 30.14 in 7.0 mi Calm Calm - N/A   Clear
8:54 AM 69.1 °F 59.0 °F 70% 30.14 in 10.0 mi WSW 4.6 mph - N/A   Clear
9:54 AM 72.0 °F 57.0 °F 59% 30.13 in 10.0 mi West 3.5 mph - N/A   Clear
10:54 AM 73.0 °F 55.9 °F 55% 30.13 in 10.0 mi West 5.8 mph - N/A   Clear
11:54 AM 73.9 °F 55.0 °F 52% 30.12 in 10.0 mi SW 6.9 mph - N/A   Clear
12:54 PM 73.9 °F 57.9 °F 57% 30.10 in 10.0 mi SW 4.6 mph - N/A   Clear
1:54 PM 73.0 °F 59.0 °F 61% 30.09 in 10.0 mi SW 5.8 mph - N/A   Clear
2:54 PM 73.9 °F 60.1 °F 62% 30.08 in 10.0 mi WSW 5.8 mph - N/A   Clear
3:54 PM 75.9 °F 62.1 °F 62% 30.08 in 10.0 mi SW 4.6 mph - N/A   Clear
4:54 PM 75.9 °F 62.1 °F 62% 30.07 in 10.0 mi WSW 5.8 mph - N/A   Partly Cloudy
5:54 PM 75.9 °F 63.0 °F 64% 30.07 in 10.0 mi WSW 6.9 mph - N/A   Clear
6:54 PM 73.9 °F 63.0 °F 68% 30.07 in 10.0 mi Calm Calm - N/A   Clear
7:54 PM 71.1 °F 64.0 °F 78% 30.07 in 10.0 mi Calm Calm - N/A   Scattered Clouds
8:54 PM 69.1 °F 63.0 °F 81% 30.07 in 10.0 mi Calm Calm - N/A   Clear
9:54 PM 66.0 °F 63.0 °F 90% 30.08 in 10.0 mi Calm Calm - N/A   Clear
10:54 PM 66.0 °F 63.0 °F 90% 30.09 in 10.0 mi Calm Calm - N/A   Clear
11:54 PM 66.0 °F 63.0 °F 90% 30.09 in 10.0 mi Calm Calm - N/A   Clear